User: anonymous   Login
Location: Kalberh�ni
(46.4610°N, 7.2453°E)
Time: 10:44:46
(UTC+00:00)
Language:

Cosmos 1606 Rocket - Orbit

View from above orbital plane
View from above orbital plane
View from above satellite
View from above satellite

Ground track
Ground track

The orbit data is extracted from the following two-line orbital elements,

1 15370U 84111B   21259.54712353  .00000089  00000-0  77879-5 0  9990
2 15370  82.5199 352.0746 0020227 338.7116  21.3255 14.83773692973255
Epoch (UTC): 16 September 2021 13:07:51
Eccentricity: 0.0020227
inclination: 82.5199°
perigee height: 603 km
apogee height: 631 km
right ascension of ascending node: 352.0746°
argument of perigee: 338.7116°
revolutions per day: 14.83773692
mean anomaly at epoch: 21.3255°
orbit number at epoch: 97325

The dashed part of the orbit path shows where the satellite is in the earth's shadow,  

DLR